This demonstration page uses our WeatherBlox Daily Observations layout. Learn more.

Left ArrowRight Arrow

Hourly Observations for June 28, 2017

Temp ( °F °C ) Dew Point ( °F °C ) Humidity (%) Winds ( mph kmh ) Pressure ( in mb ) Visibility ( mi km ) Precip ( " mm )
12:51 am 00:51 Clear 79 26.1 24 -4.4 13 13 NW 12 19 29.69 1005 10 16 N/A
1:51 am 01:51 Clear 75 23.9 23 -5 14 14 N 8 13 29.68 1005 10 16 N/A
2:51 am 02:51 Clear 73 22.8 24 -4.4 16 16 S 8 13 29.70 1006 10 16 N/A
3:51 am 03:51 Clear 69 20.6 29 -1.7 22 22 E 7 11 29.72 1006 10 16 N/A
4:51 am 04:51 Clear 68 20 28 -2.2 22 22 SSE 5 7 29.75 1007 10 16 N/A
5:51 am 05:51 Sunny 69 20.6 24 -4.4 18 18 N N/A 29.76 1008 10 16 N/A
6:51 am 06:51 Sunny 77 25 26 -3.3 15 15 N N/A 29.76 1008 10 16 N/A
7:51 am 07:51 Sunny 81 27.2 27 -2.8 14 14 SSW 3 6 29.78 1008 10 16 N/A
8:51 am 08:51 Sunny 87 30.6 35 1.7 16 16 SW 7 11 29.78 1008 10 16 N/A
9:51 am 09:51 Sunny 92 33.3 37 2.8 14 14 VRB 5 7 29.76 1008 10 16 N/A
10:51 am 10:51 Sunny 97 36.1 33 0.6 10 10 W 14 22 29.75 1007 10 16 N/A
11:51 am 11:51 Sunny 97 36.1 33 0.6 10 10 VRB 5 7 29.73 1007 10 16 N/A
12:51 pm 12:51 Sunny 101 38.3 32 undefined 9 9 WNW 12 19 29.70 1006 10 16 N/A
1:51 pm 13:51 Sunny 102 38.9 32 undefined 9 9 W 13 20 29.68 1005 10 16 N/A
2:51 pm 14:51 Sunny 104 40 29 -1.7 7 7 WSW 13 20 29.65 1004 10 16 N/A
2:58 pm 14:58 Sunny 104 40 28 -2 7 7 WNW 10 17 29.50 999 10 16 N/A
3:51 pm 15:51 Sunny 103 39.4 31 -0.6 8 8 WNW 17 28 29.64 1004 10 16 N/A
4:51 pm 16:51 Sunny 103 39.4 33 0.6 9 9 WNW 16 26 29.62 1003 10 16 N/A
5:51 pm 17:51 Sunny 101 38.3 37 2.8 11 11 WNW 22 35 29.62 1003 10 16 N/A
6:51 pm 18:51 Sunny 98 36.7 37 2.8 12 12 NW 23 37 29.62 1003 10 16 N/A
7:51 pm 19:51 Clear 94 34.4 38 3.3 14 14 NW 13 20 29.64 1004 10 16 N/A
8:51 pm 20:51 Clear 92 33.3 39 3.9 16 16 NNW 13 20 29.65 1004 10 16 N/A
9:51 pm 21:51 Clear 89 31.7 39 3.9 17 17 NW 8 13 29.67 1005 10 16 N/A
10:51 pm 22:51 Clear 84 28.9 40 4.4 21 21 WNW 10 17 29.69 1005 10 16 N/A
11:51 pm 23:51 Clear 82 27.8 39 3.9 22 22 NW 9 15 29.69 1006 10 16 N/A

Powered by AerisWeather